Regional Weather Roundup
Issued by NWS Boston, MA

Home | Current Version | Previous Version | Text Only | Print | Product List | Glossary On
Versions: 1 2 3 4 5 6 7 8 9 10 11 12 13 14 15 16 17 18 19 20 21 22 23 24 25 26 27 28 29 30 31 32 33 34 35 36 37 38 39 40 41 42 43 44 45 46 47 48 49 50
000
ASUS41 KBOX 202110
RWRBOX

REGIONAL WEATHER ROUNDUP
NATIONAL WEATHER SERVICE TAUNTON MA
400 PM EST THU NOV 20 2014

NOTE:  "FAIR" INDICATES FEW OR NO CLOUDS BELOW 12,000 FEET WITH NO
SIGNIFICANT WEATHER AND/OR OBSTRUCTIONS TO VISIBILITY.  THE FOLLOWING
OBSERVATION LOCATIONS DO NOT REPORT PRESENT WEATHER...PROVINCETOWN...
SMITHFIELD...BLOCK ISLAND...KEENE...AND OXFORD.

MAZALL-202200-
EASTERN MASSACHUSETTS

CITY           SKY/WX    TMP DP  RH WIND       PRES   REMARKS
BOSTON         PTCLDY    45  18  34 W22G30    29.76R
BEVERLY        PTCLDY    44  17  33 W8        29.75R
LAWRENCE       CLEAR     41  16  36 W15       29.77R
BEDFORD        PTCLDY    41  16  36 W8        29.76R
BLUE HILL        N/A     42  18  37 W14G28    29.73R
NORWOOD        CLEAR     45  17  32 SW10G26   29.76R
MARSHFIELD     CLEAR     46  23  39 SW14G26   29.77S
PLYMOUTH       CLEAR     46  22  38 SW22G31   29.77R
TAUNTON        CLEAR     46  22  38 SW13G22   29.77S
NEW BEDFORD    CLEAR     46  24  42 SW13G20   29.77S
$$

MAZALL-202200-
CAPE COD AND THE ISLANDS

CITY           SKY/WX    TMP DP  RH WIND       PRES   REMARKS
FALMOUTH       CLEAR     45  28  53 SW17G29   29.79R
HYANNIS        CLEAR     47  28  47 W21G26    29.78R
CHATHAM        CLEAR     46  29  51 SW12G20   29.80S
PROVINCETOWN   CLEAR     46  25  42 W24G31    29.77S
NANTUCKET      MOCLDY    49  31  49 W22G32    29.81F
MARTHAS VNYRD    N/A     46  30  53 W12       29.80S
$$

MAZALL-202200-
CENTRAL AND WESTERN MASSACHUSETTS

CITY           SKY/WX    TMP DP  RH WIND       PRES   REMARKS
WORCESTER      CLEAR     37  14  38 W10G24    29.74R WCI  30
FITCHBURG      CLEAR     40  14  34 W8        29.78R
ORANGE         PTCLDY    37  17  44 W7        29.77R WCI  32
SPRINGFIELD    CLEAR     41  13  31 W15G24    29.78R
WESTFIELD      PTCLDY    41  13  31 W9        29.78R
NORTH ADAMS    CLOUDY    32  20  61 NW8       29.81R WCI  25
PITTSFIELD     FLURRIES  31  19  61 W9        29.76R WCI  23
$$

RIZALL-202200-
RHODE ISLAND

CITY           SKY/WX    TMP DP  RH WIND       PRES   REMARKS
PROVIDENCE     PTCLDY    45  23  42 SW21G26   29.78S
NEWPORT        CLEAR     47  24  40 SW8G18    29.79R
BLOCK ISLAND   PTCLDY    46  28  49 W17G23    29.81R
SMITHFIELD     CLEAR     43  18  36 SW10G21   29.76R
WESTERLY       CLEAR     45  28  51 W14G24    29.82R
$$

CTZALL-202200-
CONNECTICUT

CITY           SKY/WX    TMP DP  RH WIND       PRES   REMARKS
BRADLEY INTL   PTCLDY    44  16  32 W12       29.78R
HARTFORD       CLEAR     44  16  32 W15G23    29.80R
BRIDGEPORT     CLEAR     45  23  42 W14G23    29.82S
DANBURY        PTCLDY    41  17  38 SW16G24   29.82R
GROTON         CLEAR     44  28  53 W13G29    29.81R
NEW HAVEN      PTCLDY    48  23  37 SW17G28   29.82R
CHESTER        FAIR      43  28  56 SW13G18   29.80S
MERIDEN        CLEAR     44  16  32 SW9G21    29.81R
WILLIMANTIC    CLEAR     44  19  36 SW10G21   29.79R
$$

MEZ002-015-021-024-NHZ003-005-008-011-012-014-VTZ005-008-202200-
NORTHERN NEW ENGLAND

CITY           SKY/WX    TMP DP  RH WIND       PRES   REMARKS
PORTLAND ME    MOCLDY    42  18  37 W9        29.75R
BANGOR ME      MOCLDY    37  16  42 SW7       29.72R WCI  32
CONCORD NH     CLOUDY    37  16  42 W12       29.77R WCI  29
MANCHESTER NH  MOCLDY    40  15  36 W8        29.76R
NASHUA NH      CLEAR     40  16  38 W7        29.78R
PORTSMOUTH NH  PTCLDY    40  18  40 W8        29.74R
JAFFREY NH     CLOUDY    34  15  46 W8G17     29.75R WCI  27
KEENE NH       PTCLDY    36  18  48 NW7       29.79R WCI  30
BURLINGTON VT  MOCLDY    31  20  63 W6        29.77R WCI  25
MT. WASHINGTON SNOWSHWR   5   5 100 W47G56      N/A  VSB 0   WCI -23
$$

NYZ052-076-202200-
EASTERN NEW YORK

CITY           SKY/WX    TMP DP  RH WIND       PRES   REMARKS
ALBANY         MOCLDY    32  21  64 NW12      29.85R WCI  23
NEW YORK CITY  PTCLDY    45  21  38 W16G25    29.85R
$$

ANZALL-202200-
MARINE OBSERVATIONS

STATION/POSITION TIME  TEMP    WIND        PRES    VSBY  WAVE
                       AIR SEA DIR/SP/G                  HT/PER
                 (UTC) (F)     (DEG/KT/KT) (MB)    (MI)  (FT/S)
BOSTON BUOY      2050   47 50  260/ 21/ 25 1007.3R         3/ 4
BUZZARDS BAY     2000          250/ 25/ 29 1009.4F
NANTUCKET SOUND  2050   49 48  240/ 27/ 31 1008.2F         4/ 4
MASS BAY-STELLWA 2004   47 51  240/ 21/ 25   N/A    1 7/8  4/ 4
ISLE OF SHOALS   2100   43     270/ 18/ 20 1006.5R
S OF BLOCK IS    2008      56                N/A           8/ 8
$$

......................KEY.........................
  SKY/WX - SKY CONDITION/PRESENT WEATHER
  TMP    - TEMPERATURE IN FAHRENHEIT
  DWPT   - DEWPOINT IN FAHRENHEIT
  RH     - RELATIVE HUMIDITY IN PERCENT
  WIND   - DIRECTION AND SPEED IN MPH
  PRES   - MEAN SEA LEVEL PRESSURE IN INCHES OF HG
  WCI    - WIND CHILL INDEX
  VSB    - VISIBILITY IN MILES
  HX     - HEAT INDEX
  TC     - TEMPERATURE IN CELSIUS
  VRB    - VARIABLE WIND DIRECTION
  N/A    - NOT AVAILABLE



USA.gov is the U.S. government's official web portal to all federal, state and local government web resources and services.